Flag for Canada Weather past 2 weeks in Greater Sudbury, Ontario, Canada

Now
54 °F

Fog.


Feels Like: 52 °F
Forecast: 49 / 66 °F
Wind: 7 mph from South

Location: Sudbury

Current Time: Aug 29, 2014 at 8:59:48 AM

Latest Report: Aug 29, 2014 at 8:00 AM


Visibility: 15 mi

Pressure: 30.17 "Hg

Humidity: 94%

Dew point: 52 °F

Location of Greater SudburyLocation

Historic Weather in Greater Sudbury — Graph

°F

Greater Sudbury temperature yesterday

Maximum temperature yesterday: 70 °F (at 4:00 PM)
Minimum temperature yesterday: 43 °F (at 5:00 AM)
Average temperature yesterday: 57 °F

Past Weeks' High & Low Weather Summary

 TemperatureHumidityPressure
High79 °F (Aug 24, 3:00 PM)100% (Aug 14, 4:00 PM)30.24 "Hg (Aug 14, 4:00 PM)
Low43 °F (Aug 18, 5:00 AM)40% (Aug 28, 6:00 PM)29.72 "Hg (Aug 16, 10:00 AM)
Average61 °F86%30.00 "Hg
* Reported Aug 14 7:00 AM — Aug 29 7:00 AM, Greater Sudbury, Weather by CustomWeather, © 2014

Note: Actual official high and low records may vary slightly from our data, if they occured in-between our weather recording intervals... More about our weather records

Advertising

Greater Sudbury weather history for previous 24 hours

 ConditionsComfort  
Time TempWeatherWind HumidityBarometerVisibility
7:00 AM
Aug 29
50 °FFog.8 mph100%30.16 "Hg15 mi
6:00 AM48 °FPassing clouds.5 mph100%30.16 "Hg15 mi
5:00 AM50 °FClear.6 mph100%30.15 "Hg15 mi
4:00 AM50 °FClear.3 mph100%30.14 "Hg15 mi
3:00 AM50 °FClear.3 mph100%30.16 "Hg15 mi
2:00 AM52 °FClear.6 mph100%30.15 "Hg15 mi
1:00 AM54 °FClear.6 mph88%30.15 "Hg15 mi
12:00 AM54 °FClear.5 mph82%30.15 "Hg15 mi
11:00 PM
Aug 28
59 °FClear.3 mph59%30.14 "Hg20 mi
10:00 PM59 °FClear.3 mph68%30.14 "Hg15 mi
9:00 PM59 °FPassing clouds.3 mph63%30.13 "Hg20 mi
8:00 PM64 °FPassing clouds.2 mph52%30.11 "Hg20 mi
7:00 PM68 °FPassing clouds.6 mph43%30.11 "Hg20 mi
6:00 PM70 °FPassing clouds.6 mph40%30.11 "Hg20 mi
5:00 PM70 °FPassing clouds.6 mph43%30.11 "Hg20 mi
4:00 PM70 °FPassing clouds.9 mph46%30.12 "Hg20 mi
3:00 PM68 °FPassing clouds.8 mph49%30.13 "Hg20 mi
2:00 PM66 °FPassing clouds.9 mph49%30.13 "Hg20 mi
1:00 PM64 °FPassing clouds.7 mph52%30.14 "Hg20 mi
12:00 PM63 °FPassing clouds.10 mph59%30.14 "Hg20 mi
11:00 AM61 °FPassing clouds.12 mph63%30.14 "Hg20 mi
10:00 AM57 °FPassing clouds.8 mph77%30.15 "Hg20 mi
9:00 AM52 °FPassing clouds.10 mph94%30.14 "Hg20 mi
8:00 AM48 °FPassing clouds.7 mph100%30.14 "Hg20 mi
Weather by CustomWeather, © 2014

See weather overviewHow to use our weather pages